La Vergne, TN

1:36 AM CST on February 23, 2017 (GMT -0600)
Smyrna

Weather History for KMQY - August, 2014

Change the Weather History Date:

Friday, August 8, 2014

  Actual Average Record
Temperature  
Mean Temperature 80 °F -  
Max Temperature 90 °F 84 °F 106 °F (2007)
Min Temperature 70 °F 67 °F 62 °F (2004)
Cooling Degree Days 14    
Growing Degree Days 30 (Base 50)    
Moisture  
Dew Point 72 °F    
Average Humidity 82    
Maximum Humidity 100    
Minimum Humidity 62    
Precipitation  
Precipitation 0.01 in - - ()
Sea Level Pressure  
Sea Level Pressure 29.99 in    
Wind  
Wind Speed 4 mph (SW)    
Max Wind Speed 12 mph    
Max Gust Speed -    
Visibility 9 miles    
Events Rain    
Averages and records for this station are not official NWS values.
T = Trace of Precipitation, MM = Missing Value Source: NWS Daily Summary

Daily Weather History Graph

Daily Weather History Graph

Search for Another Location

Airport or City:

Trip Planner

Search our weather history database for the weather conditions in past years. The results will help you decide how hot, cold, wet, or windy it might be!

Date:

Astronomy

Aug. 08, 2014 Rise Set
Actual Time 5:58 AM CDT 7:43 PM CDT
Civil Twilight 5:31 AM CDT 8:11 PM CDT
Nautical Twilight 4:57 AM CDT 8:44 PM CDT
Astronomical Twilight 4:22 AM CDT 9:20 PM CDT
Moon 5:54 PM CDT (8/8) 3:32 AM CDT (8/8)
Length of Visible Light 14h 40m
Length of Day
13h 44m
Waxing Gibbous, 94% of the Moon is Illuminated
Aug 8
Waxing Gibbous
Aug 10
Full
Aug 17
Last Quarter
Aug 25
New
Sep 2
First Quarter

Hourly Weather History & Observations

Time (CDT) Temp. Heat Index Dew Point Humidity Pressure Visibility Wind Dir Wind Speed Gust Speed Precip Events Conditions
12:11 AM 71.6 °F - 71.6 °F 100% 30.00 in 8.0 mi South 9.2 mph - 0.00 in Rain Light Rain
12:56 AM 70.9 °F - 70.9 °F 100% 30.00 in 10.0 mi Calm Calm - 0.01 in   Clear
1:56 AM 70.9 °F - 70.9 °F 100% 29.98 in 10.0 mi Calm Calm - N/A   Clear
2:56 AM 70.9 °F - 70.9 °F 100% 29.98 in 10.0 mi Calm Calm - 0.00 in   Clear
3:56 AM 70.9 °F - 70.9 °F 100% 29.99 in 7.0 mi Calm Calm - 0.00 in   Clear
4:56 AM 72.0 °F - 72.0 °F 100% 29.99 in 6.0 mi Calm Calm - N/A   Clear
5:56 AM 72.0 °F - 72.0 °F 100% 30.00 in 3.0 mi Calm Calm - N/A   Clear
6:56 AM 72.0 °F - 72.0 °F 100% 30.01 in 4.0 mi Calm Calm - N/A   Clear
7:56 AM 74.8 °F - 74.8 °F 100% 30.03 in 10.0 mi South 5.8 mph - N/A   Scattered Clouds
8:56 AM 77.9 °F - 73.9 °F 88% 30.04 in 10.0 mi SW 4.6 mph - N/A   Mostly Cloudy
9:56 AM 83.8 °F 89.8 °F 72.9 °F 69% 30.04 in 10.0 mi West 4.6 mph - N/A   Partly Cloudy
10:56 AM 82.4 °F 88.2 °F 73.4 °F 74% 30.03 in 10.0 mi SSW 6.9 mph - N/A   Partly Cloudy
11:56 AM 82.4 °F 86.3 °F 69.8 °F 66% 30.02 in 10.0 mi SW 8.1 mph - N/A   Scattered Clouds
12:56 PM 86.0 °F 92.2 °F 72.0 °F 63% 30.00 in 10.0 mi WSW 8.1 mph - N/A   Clear
1:56 PM 80.6 °F 84.6 °F 71.6 °F 74% 29.99 in 10.0 mi NW 6.9 mph - 0.00 in   Partly Cloudy
2:56 PM 86.9 °F 95.0 °F 73.9 °F 65% 29.97 in 10.0 mi West 5.8 mph - N/A   Overcast
3:05 PM 89.6 °F 99.8 °F 75.2 °F 62% 29.95 in 10.0 mi WNW 9.2 mph - N/A   Mostly Cloudy
3:16 PM 87.8 °F 95.6 °F 73.4 °F 62% 29.95 in 10.0 mi West 8.1 mph - N/A   Mostly Cloudy
3:56 PM 86.9 °F 94.1 °F 72.9 °F 63% 29.96 in 10.0 mi West 11.5 mph - N/A   Partly Cloudy
4:56 PM 86.0 °F 94.6 °F 74.8 °F 69% 29.95 in 10.0 mi Variable 3.5 mph - N/A   Scattered Clouds
5:56 PM 84.9 °F 91.4 °F 72.9 °F 67% 29.95 in 10.0 mi South 8.1 mph - N/A   Scattered Clouds
6:56 PM 79.9 °F - 70.0 °F 72% 29.95 in 10.0 mi SSW 5.8 mph - N/A   Clear
7:56 PM 77.9 °F - 68.9 °F 74% 29.96 in 10.0 mi SSW 5.8 mph - N/A   Clear
8:56 PM 75.9 °F - 68.9 °F 79% 29.99 in 10.0 mi South 3.5 mph - N/A   Clear
9:56 PM 74.8 °F - 68.9 °F 82% 30.01 in 10.0 mi SW 6.9 mph - N/A   Clear
10:56 PM 73.9 °F - 68.9 °F 84% 30.01 in 10.0 mi SSW 4.6 mph - N/A   Clear
11:56 PM 72.0 °F - 70.0 °F 93% 30.01 in 10.0 mi Calm Calm - N/A   Clear